Julián Lepphaille fue el más rápido en la primera tanda de entrenamientos de la Clase 2 del Turismo Nacional, en el marco de la sexta fecha de la temporada. El piloto de Marcos Paz marcó un tiempo de 1:40.840 para ser la referencia inicial con el Toyota Etios que atiende el GR Competición.

En el Autódromo Rosendo Hernández de San Luis, el segundo lugar quedó en manos de Gastón Grasso, a 5 centésimas; mientras que el debutante Damián Markel finalizó en el tercer puesto, a 38 centésimas de la punta.

Por su parte, las diez primeras posiciones las completaron Gerónimo Núñez, Sebastián Pérez, Nicolás Posco, Ever Franetovich, Renzo Testa, Alejandro Valderrey y Sergio Fernández.

    1er. Entrenamiento TN Clase 2 – San Luis    

Pos. Piloto Marca Vtas. Tiempo Dif.
1 3 Julián Lepphaille Toyota Etios 10 1:40.840
2 5 Gastón Grasso Volkswagen Gol Trend 9 1:40.890 0.050
3 150 Damián Markel Toyota Etios 11 1:41.222 0.382
4 120 Gerónimo Núñez Nissan March 12 1:41.425 0.585
5 25 Sebastián Pérez Chevrolet Onix 8 1:41.478 0.638
6 1 Nicolás Posco Ford Fiesta Kinetic 9 1:41.536 0.696
7 14 Ever Franetovich Fiat Palio 7 1:41.569 0.729
8 63 Renzo Testa Fiat Palio 9 1:41.664 0.824
9 39 Alejandro Valderrey Fiat Palio 12 1:41.866 1.026
10 32 Sergio Fernández Nissan March 11 1:41.928 1.088
11 69 Agustín Herrera Renault Clio 8 1:41.934 1.094
12 73 Lucas Bagnera Toyota Etios 11 1:42.097 1.257
13 49 Juan Carlos Polini Renault Clio 13 1:42.147 1.307
14 28 Agustín López Donzelli Renault Clio 11 1:42.266 1.426
15 21 Gabriel Scordia Ford Fiesta Kinetic 12 1:42.340 1.500
16 26 Damián Kirstein Peugeot 208 11 1:42.410 1.570
17 35 Diego Leanez Toyota Etios 9 1:42.445 1.605
18 11 Gastón Iansa Ford Fiesta Kinetic 9 1:42.580 1.740
19 43 Walter López Nissan March 12 1:42.582 1.742
20 114 Matías Signorelli Nissan March 12 1:42.589 1.749
21 13 Joel Borgobello Volkswagen Gol Trend 4 1:42.772 1.932
22 18 Marcos Fernández Nissan March 10 1:42.819 1.979
23 111 Joel Gassmann Ford Fiesta Kinetic 11 1:42.888 2.048
24 31 Facundo Leanez Toyota Etios 8 1:42.945 2.105
25 24 Juan Ignacio Canela Toyota Etios 10 1:42.990 2.150
26 6 Miguel Ciaurro Volkswagen Gol Trend 11 1:43.115 2.275
27 36 Alejo Borgiani Volkswagen Gol Trend 3 1:43.236 2.396
28 54 Facundo Rotondo Ford Fiesta Kinetic 11 1:43.285 2.445
29 117 Stéfano Di Palma Chevrolet Onix 10 1:43.326 2.486
30 141 Juan Pablo Rotondo Ford Fiesta Kinetic 13 1:43.337 2.497
31 78 Alejandro Weimann Toyota Etios 9 1:43.496 2.656
32 65 Fernando Gómez Fredes Peugeot 208 13 1:43.849 3.009
33 48 Horacio Costa Toyota Etios 11 1:44.114 3.274
34 159 Agustín Bonomo DS3 12 1:45.122 4.282

S.B